Regional Weather Roundup
Issued by NWS

Home | Current Version | Previous Version | Text Only | Print | Product List | Glossary On
Versions: 1 2 3 4 5 6 7 8 9 10 11 12 13 14 15 16 17 18 19 20 21 22 23 24 25 26 27 28 29 30 31 32 33 34 35 36 37 38 39 40 41 42 43 44 45 46 47 48 49 50
000
ASUS45 KTFX 182010
RWRMT
MONTANA REGIONAL WEATHER ROUNDUP
NATIONAL WEATHER SERVICE GREAT FALLS MT
200 PM MDT FRI AUG 18 2017

NOTE: "FAIR" INDICATES FEW OR NO CLOUDS BELOW 12000 FEET WITH NO
SIGNIFICANT WEATHER AND/OR OBSTRUCTIONS TO VISIBILITY.

MTZ001>007-043-182100-
WEST OF THE DIVIDE

CITY           SKY/WX    TMP DP  RH WIND       PRES   REMARKS
KALISPELL      SUNNY     82  44  26 S15       29.98F
MISSOULA       SUNNY     81  38  21 SW3       30.03F
BUTTE          SUNNY     80  26  13 N6        30.14F
MULLAN PASS    SUNNY     70  37  29 VRB3      30.21S
ANACONDA         N/A     81  32  17 N8        30.08F
DEER LODGE       N/A     79  34  19 CALM      30.11F
EUREKA           N/A     86  37  17 MISG      29.93F
HAMILTON         N/A     82  36  18 N5        30.05F
LIBBY            N/A     86  37  17 S6        29.95F
RONAN            N/A     80  40  24 SE8       30.07F
$$

MTZ008-052>055-182100-
SOUTHWEST MONTANA

CITY           SKY/WX    TMP DP  RH WIND       PRES   REMARKS
BOZEMAN        SUNNY     83  38  20 N6        30.08F
DILLON         SUNNY     80  38  22 SW14G20   30.11F
W YELLOWSTONE  SUNNY     73  30  20 SW14G23   30.26S
ENNIS          SUNNY     82  27  13 VRB5G13   30.18F
THREE FORKS      N/A     84  31  15 S2        30.05F
TWIN BRIDGES     N/A     82  31  16 CALM      30.09F
$$

MTZ009-010-012-014-046-048-049-054-182100-
EAST SLOPES AND CENTRAL MONTANA

CITY           SKY/WX    TMP DP  RH WIND       PRES   REMARKS
CUT BANK       SUNNY     86  35  16 W17G25    29.94F
GREAT FALLS    SUNNY     86  28  12 SW14G28   29.96F
MALMSTROM AFB  SUNNY     85  30  13 SW13      29.96F
HELENA         SUNNY     87  24  10 W18G25    30.01F
AUGUSTA          N/A     84  29  13 W14       30.00F
BOWMANS CRNR     N/A     83  27  12 W10G21    29.99F
CHOTEAU          N/A     84  32  15 VRB5G14   29.98F
FAIRFIELD        N/A     83  31  15 S5        29.96F
POWER            N/A     84  30  14 W7G20     29.96F
RAYNESFORD       N/A     85  25  11 W18G26    29.98F
ULM              N/A     86  29  12 SW12G23   29.97F
$$

MTZ011-013-016-021-045-047-050-051-182100-
NORTH CENTRAL MONTANA

CITY           SKY/WX    TMP DP  RH WIND       PRES   REMARKS
HAVRE          SUNNY     89  36  15 SW18G24   29.88F
LEWISTOWN      SUNNY     83  34  17 NW9       30.00F
N BAR RANCH      N/A     82  34  17 E5        30.04F
CHINOOK          N/A     88  39  18 W14       29.87F
DENTON           N/A     83  30  14 SE5G18    29.93F
GEYSER           N/A     84  28  13 W16G22    29.98F
GRASS RANGE      N/A     84  28  13 W10       29.95F
JUDITH GAP       N/A     82  29  14 NE3       30.02F
WINIFRED         N/A     81  35  19 NE10      29.97F
$$

MTZ017>020-022>027-061-062-182100-
NORTHEAST MONTANA

CITY           SKY/WX    TMP DP  RH WIND       PRES   REMARKS
GLASGOW        SUNNY     85  32  15 S3        29.90F HAZE
JORDAN           N/A     90  35  14 E6        29.90F
SIDNEY         SUNNY     83  52  34 S5        29.93F
WOLF POINT     SUNNY     87  37  17 W7        29.91F
MALTA          SUNNY     90  36  14 VRB7G18   29.87F
PLENTYWOOD       N/A     81  46  30 CALM      29.92F
POPLAR           N/A     82  46  28 CALM      29.92F
SCOBEY           N/A     83  41  22 SW5       29.92F
$$

MTZ028>42-056>058-182100-
SOUTHCENTRAL AND SOUTHEAST MONTANA

CITY           SKY/WX    TMP DP  RH WIND       PRES   REMARKS
BAKER          SUNNY     87  38  17 NW8       29.99F
BILLINGS       SUNNY     85  36  17 S8        29.99F
LIVINGSTON     SUNNY     87  27  11 W20G25    30.06F
MILES CITY     SUNNY     89  35  14 SW9       29.94F
BIG TIMBER     SUNNY     86  21   9 W17G31    30.07F
EKALAKA          N/A     84  36  18 W7        30.00
HARLOWTON        N/A     84  23  10 MISG      30.02F
LAUREL           N/A     86  42  21 E5        29.99F
$$

REGIONAL REPORTS...DAKOTAS

CITY           SKY/WX    TMP DP  RH WIND       PRES   REMARKS
WILLISTON      SUNNY     82  52  35 S6        29.94F
MINOT          SUNNY     82  48  30 NW14G23   29.90F
DICKINSON      MOSUNNY   80  47  31 VRB3      29.96F
BEACH            N/A     82  41  23 N5G12     30.00F
CROSBY           N/A     81  45  28 NW12      29.93S
TIOGA          PTSUNNY   79  48  34 W9        29.96F
WATFORD CITY     N/A     82  46  28 E6        29.94F
BISMARCK       SUNNY     81  56  42 MISG      29.95F
GRAND FORKS    PTSUNNY   81  58  45 NW10      29.84S
FARGO          CLOUDY    77  64  64 SW10      29.85F
BUFFALO SD       N/A     84  41  21 NW13      29.95F
RAPID CITY     SUNNY     86  42  21 N18G24    30.02F
$$

REGIONAL REPORTS...WYOMING/IDAHO/WASHINGTON

CITY           SKY/WX    TMP DP  RH WIND       PRES   REMARKS
GILLETTE       SUNNY     86  29  12 W16       30.06F
SHERIDAN       SUNNY     90  37  15 N8        30.02F
BUFFALO WY     SUNNY     86  30  13 MISG      30.10F
CODY           SUNNY     84  37  18 VRB3      30.09F
YELLOWSTONE LA   N/A     71  27  19 VRB6G18   30.33F
IDAHO FALLS    SUNNY     81  39  22 S14       30.16F
SALMON         SUNNY     80  40  23 NW7       30.08F
BOISE          SUNNY     87  37  17 N13       30.08F
SPOKANE        PTSUNNY   80  43  26 SW14G20   30.03F
$$

REGIONAL REPORTS...ALBERTA

CITY           SKY/WX    TMP DP  RH WIND       PRES   REMARKS
EDMONTON       SUNNY     77  54  44 SW10      29.73F
CALGARY        CLOUDY    79  43  27 S5        29.81F
LETHBRIDGE     PTSUNNY   88  34  14 W28       29.83F
MEDICINE HAT   PTSUNNY   88  43  20 SW15G21   29.79F
$$

REGIONAL REPORTS...SASKATCHEWAN

CITY           SKY/WX    TMP DP  RH WIND       PRES   REMARKS
SWIFT CURRENT  SUNNY     84  43  23 SW9G21    29.86F
REGINA         SUNNY     82  43  24 W10       29.88F
SASKATOON      MOSUNNY   79  46  31 VRB2      29.85F
$$



USA.gov is the U.S. government's official web portal to all federal, state and local government web resources and services.